Terug naar catalogus

STARLINK-37984

ActiefCommunicatieVLEO
NORAD 100044·PAYLOAD·🇺🇸 United States

Gelanceerd Jul 14, 2026 vanaf Cape Canaveral Space Force Station

Loading…

Volgende Passages (komende 24 uur)

TLE

VersSource: Space-Track

Epoch: Sep 14, 2026, 21:08 UTC

1 A0044U 26161S   26257.88084130  .00020548  00000-0  61740-3 0  9998
2 A0044  53.1613  24.2848 0001497  62.3116 297.8039 15.34411479  9744

Volg STARLINK-37984 in realtime met AllMySat

Download on the App Store